TimePST,TemperatureF,Dew PointF,Humidity,Sea Level PressureIn,VisibilityMPH,Wind Direction,Wind SpeedMPH,Gust SpeedMPH,PrecipitationIn,Events,Conditions,WindDirDegrees,DateUTC
12:35 AM,44.6,42.8,93,30.33,10.0,North,3.5,-,N/A,,Overcast,10,2013-02-10 08:35:00
12:55 AM,44.6,42.8,93,30.33,10.0,Calm,Calm,-,N/A,,Mostly Cloudy,0,2013-02-10 08:55:00
1:15 AM,42.8,42.8,100,30.33,7.0,Calm,Calm,-,N/A,,Overcast,0,2013-02-10 09:15:00
1:35 AM,42.8,42.8,100,30.33,10.0,Calm,Calm,-,N/A,,Overcast,0,2013-02-10 09:35:00
1:55 AM,42.8,42.8,100,30.33,7.0,Calm,Calm,-,N/A,,Overcast,0,2013-02-10 09:55:00
2:15 AM,42.8,42.8,100,30.33,7.0,Calm,Calm,-,N/A,,Overcast,0,2013-02-10 10:15:00
2:35 AM,42.8,42.8,100,30.34,5.0,NNE,3.5,-,N/A,,Overcast,30,2013-02-10 10:35:00
2:55 AM,42.8,42.8,100,30.34,10.0,ENE,3.5,-,N/A,,Overcast,70,2013-02-10 10:55:00
3:15 AM,42.8,42.8,100,30.34,10.0,NE,3.5,-,N/A,,Overcast,50,2013-02-10 11:15:00
3:35 AM,42.8,42.8,100,30.33,10.0,ENE,3.5,-,N/A,,Overcast,60,2013-02-10 11:35:00
3:55 AM,42.8,42.8,100,30.34,10.0,ENE,3.5,-,N/A,,Overcast,60,2013-02-10 11:55:00
4:15 AM,42.8,42.8,100,30.34,10.0,ENE,3.5,-,N/A,,Overcast,60,2013-02-10 12:15:00
4:35 AM,42.8,42.8,100,30.34,10.0,NE,3.5,-,N/A,,Overcast,50,2013-02-10 12:35:00
4:55 AM,42.8,42.8,100,30.34,10.0,Calm,Calm,-,N/A,,Overcast,0,2013-02-10 12:55:00
5:15 AM,42.8,42.8,100,30.34,10.0,Calm,Calm,-,N/A,,Overcast,0,2013-02-10 13:15:00
5:35 AM,42.8,42.8,100,30.34,10.0,Calm,Calm,-,N/A,,Overcast,0,2013-02-10 13:35:00
5:55 AM,42.8,41.0,93,30.35,10.0,Calm,Calm,-,N/A,,Overcast,0,2013-02-10 13:55:00
6:15 AM,42.8,42.8,100,30.35,10.0,Calm,Calm,-,N/A,,Overcast,0,2013-02-10 14:15:00
6:35 AM,42.8,42.8,100,30.35,10.0,Calm,Calm,-,N/A,,Overcast,0,2013-02-10 14:35:00
6:55 AM,42.8,42.8,100,30.35,10.0,Calm,Calm,-,N/A,,Overcast,0,2013-02-10 14:55:00
7:15 AM,42.8,42.8,100,30.35,10.0,Calm,Calm,-,N/A,,Overcast,0,2013-02-10 15:15:00
7:35 AM,42.8,42.8,100,30.36,10.0,Calm,Calm,-,N/A,,Overcast,0,2013-02-10 15:35:00
7:55 AM,42.8,42.8,100,30.36,10.0,Calm,Calm,-,N/A,,Overcast,0,2013-02-10 15:55:00
8:15 AM,42.8,42.8,100,30.36,10.0,East,4.6,-,N/A,,Overcast,90,2013-02-10 16:15:00
8:35 AM,42.8,42.8,100,30.36,10.0,ESE,4.6,-,N/A,,Overcast,110,2013-02-10 16:35:00
8:55 AM,42.8,42.8,100,30.37,10.0,Calm,Calm,-,N/A,,Overcast,0,2013-02-10 16:55:00
9:15 AM,44.6,42.8,93,30.37,10.0,Calm,Calm,-,N/A,,Overcast,0,2013-02-10 17:15:00
9:35 AM,44.6,44.6,100,30.37,10.0,Calm,Calm,-,N/A,,Overcast,0,2013-02-10 17:35:00
9:55 AM,44.6,44.6,100,30.37,10.0,Calm,Calm,-,N/A,,Overcast,0,2013-02-10 17:55:00
10:15 AM,44.6,44.6,100,30.38,10.0,NE,3.5,-,N/A,,Overcast,40,2013-02-10 18:15:00
10:35 AM,46.4,42.8,87,30.37,10.0,Calm,Calm,-,N/A,,Overcast,0,2013-02-10 18:35:00
10:55 AM,46.4,42.8,87,30.37,10.0,Calm,Calm,-,N/A,,Overcast,0,2013-02-10 18:55:00
11:15 AM,46.4,42.8,87,30.37,5.0,Calm,Calm,-,N/A,,Overcast,0,2013-02-10 19:15:00
11:35 AM,46.4,42.8,87,30.37,7.0,NNW,4.6,-,N/A,,Overcast,330,2013-02-10 19:35:00
11:55 AM,46.4,42.8,87,30.37,4.0,NW,3.5,-,N/A,,Overcast,320,2013-02-10 19:55:00
12:15 PM,46.4,42.8,87,30.36,4.0,NNW,4.6,-,N/A,,Overcast,340,2013-02-10 20:15:00
12:35 PM,46.4,41.0,81,30.36,7.0,North,4.6,-,N/A,,Overcast,360,2013-02-10 20:35:00
12:55 PM,46.4,41.0,81,30.35,10.0,North,8.1,-,N/A,,Overcast,350,2013-02-10 20:55:00
1:15 PM,46.4,41.0,81,30.35,10.0,North,5.8,-,N/A,,Overcast,350,2013-02-10 21:15:00
1:35 PM,46.4,41.0,81,30.35,10.0,North,9.2,-,N/A,,Overcast,350,2013-02-10 21:35:00
1:55 PM,48.2,41.0,76,30.34,10.0,NNW,9.2,-,N/A,,Overcast,340,2013-02-10 21:55:00
2:15 PM,46.4,41.0,81,30.35,7.0,NNW,10.4,-,N/A,,Overcast,330,2013-02-10 22:15:00
2:35 PM,46.4,42.8,87,30.34,7.0,NNW,9.2,-,N/A,,Overcast,340,2013-02-10 22:35:00
2:55 PM,46.4,42.8,87,30.34,7.0,NNW,8.1,-,N/A,,Overcast,340,2013-02-10 22:55:00
3:15 PM,46.4,42.8,87,30.34,10.0,NNW,10.4,-,N/A,,Overcast,340,2013-02-10 23:15:00
3:35 PM,46.4,42.8,87,30.34,10.0,North,6.9,-,N/A,,Overcast,350,2013-02-10 23:35:00
3:55 PM,46.4,41.0,81,30.34,10.0,NNW,9.2,-,N/A,,Overcast,340,2013-02-10 23:55:00
4:15 PM,46.4,41.0,81,30.34,10.0,NNW,11.5,-,N/A,,Overcast,340,2013-02-11 00:15:00
4:35 PM,46.4,41.0,81,30.35,10.0,NNW,10.4,16.1,N/A,,Overcast,340,2013-02-11 00:35:00
4:55 PM,46.4,41.0,81,30.35,10.0,North,12.7,-,N/A,,Overcast,350,2013-02-11 00:55:00
5:15 PM,46.4,41.0,81,30.35,10.0,NNW,12.7,-,N/A,,Overcast,340,2013-02-11 01:15:00
5:35 PM,44.6,41.0,87,30.35,10.0,North,6.9,-,N/A,,Overcast,360,2013-02-11 01:35:00
5:55 PM,44.6,39.2,81,30.35,10.0,North,8.1,-,N/A,,Overcast,360,2013-02-11 01:55:00
6:15 PM,44.6,37.4,76,30.35,10.0,North,6.9,-,N/A,,Overcast,360,2013-02-11 02:15:00
6:35 PM,44.6,39.2,81,30.36,10.0,NNE,3.5,-,N/A,,Overcast,20,2013-02-11 02:35:00
6:55 PM,44.6,39.2,81,30.36,10.0,NE,3.5,-,N/A,,Overcast,40,2013-02-11 02:55:00
7:15 PM,44.6,39.2,81,30.36,10.0,NE,3.5,-,N/A,,Overcast,40,2013-02-11 03:15:00
7:35 PM,44.6,37.4,76,30.36,10.0,ENE,3.5,-,N/A,,Overcast,60,2013-02-11 03:35:00
7:55 PM,44.6,39.2,81,30.36,10.0,ENE,3.5,-,N/A,,Overcast,70,2013-02-11 03:55:00
8:15 PM,44.6,39.2,81,30.36,10.0,ENE,3.5,-,N/A,,Overcast,70,2013-02-11 04:15:00
8:35 PM,44.6,39.2,81,30.36,10.0,ENE,4.6,-,N/A,,Overcast,70,2013-02-11 04:35:00
8:55 PM,42.8,39.2,87,30.36,10.0,NE,3.5,-,N/A,,Overcast,50,2013-02-11 04:55:00
9:15 PM,42.8,39.2,87,30.36,10.0,NNE,4.6,-,N/A,,Overcast,30,2013-02-11 05:15:00
9:35 PM,44.6,39.2,81,30.36,10.0,NNE,3.5,-,N/A,,Overcast,30,2013-02-11 05:35:00
9:55 PM,44.6,37.4,76,30.36,10.0,NNE,3.5,-,N/A,,Overcast,30,2013-02-11 05:55:00
10:15 PM,42.8,39.2,87,30.36,10.0,Calm,Calm,-,N/A,,Overcast,0,2013-02-11 06:15:00
10:35 PM,42.8,39.2,87,30.36,10.0,NE,4.6,-,N/A,,Overcast,40,2013-02-11 06:35:00
10:55 PM,42.8,37.4,81,30.36,10.0,Calm,Calm,-,N/A,,Overcast,0,2013-02-11 06:55:00
11:15 PM,42.8,39.2,87,30.36,10.0,Calm,Calm,-,N/A,,Overcast,0,2013-02-11 07:15:00
11:35 PM,42.8,39.2,87,30.37,10.0,NNE,3.5,-,N/A,,Overcast,30,2013-02-11 07:35:00
11:55 PM,42.8,39.2,87,30.37,10.0,NE,3.5,-,N/A,,Overcast,40,2013-02-11 07:55:00